Time,TemperatureF,DewpointF,PressureIn,WindDirection,WindDirectionDegrees,WindSpeedMPH,WindSpeedGustMPH,Humidity,HourlyPrecipIn,Conditions,Clouds,dailyrainin,SoftwareType,DateUTC
2013-09-17 00:02:00,54.2,53.0,30.18,West,279,0.0,0.0,95,0.00,,,0.00,weatherlink.com 1.10,2013-09-17 04:02:00,
2013-09-17 00:18:00,54.1,53.0,30.19,West,279,0.0,1.0,94,0.00,,,0.00,weatherlink.com 1.10,2013-09-17 04:18:00,
2013-09-17 00:33:00,53.7,52.0,30.20,West,279,0.0,2.0,94,0.00,,,0.00,weatherlink.com 1.10,2013-09-17 04:33:00,
2013-09-17 00:48:00,54.1,53.0,30.20,North,355,0.0,1.0,94,0.00,,,0.00,weatherlink.com 1.10,2013-09-17 04:48:00,
2013-09-17 01:03:00,55.0,53.0,30.21,NNE,32,0.0,2.0,91,0.00,,,0.00,weatherlink.com 1.10,2013-09-17 05:03:00,
2013-09-17 01:18:00,55.6,53.0,30.21,North,5,0.0,2.0,90,0.00,,,0.00,weatherlink.com 1.10,2013-09-17 05:18:00,
2013-09-17 01:33:00,55.9,52.0,30.22,West,266,0.0,2.0,88,0.00,,,0.00,weatherlink.com 1.10,2013-09-17 05:33:00,
2013-09-17 01:48:00,55.9,52.0,30.22,West,266,0.0,0.0,88,0.00,,,0.00,weatherlink.com 1.10,2013-09-17 05:48:00,
2013-09-17 02:03:00,55.6,52.0,30.23,West,266,0.0,0.0,88,0.00,,,0.00,weatherlink.com 1.10,2013-09-17 06:03:00,
2013-09-17 02:18:00,55.1,52.0,30.23,South,174,0.0,1.0,88,0.00,,,0.00,weatherlink.com 1.10,2013-09-17 06:18:00,
2013-09-17 02:33:00,54.8,51.0,30.22,NNE,25,0.0,1.0,88,0.00,,,0.00,weatherlink.com 1.10,2013-09-17 06:33:00,
2013-09-17 02:48:00,54.3,51.0,30.23,West,280,0.0,2.0,88,0.00,,,0.00,weatherlink.com 1.10,2013-09-17 06:48:00,
2013-09-17 03:03:00,53.8,50.0,30.23,West,275,0.0,3.0,88,0.00,,,0.00,weatherlink.com 1.10,2013-09-17 07:03:00,
2013-09-17 03:18:00,53.5,50.0,30.23,WNW,301,0.0,3.0,88,0.00,,,0.00,weatherlink.com 1.10,2013-09-17 07:18:00,
2013-09-17 03:33:00,53.1,50.0,30.24,NW,326,0.0,2.0,88,0.00,,,0.00,weatherlink.com 1.10,2013-09-17 07:33:00,
2013-09-17 03:48:00,52.7,50.0,30.24,WNW,290,0.0,2.0,89,0.00,,,0.00,weatherlink.com 1.10,2013-09-17 07:48:00,
2013-09-17 04:03:00,52.3,49.0,30.25,NNE,12,0.0,1.0,88,0.00,,,0.00,weatherlink.com 1.10,2013-09-17 08:03:00,
2013-09-17 04:18:00,51.8,49.0,30.25,West,259,0.0,3.0,89,0.00,,,0.00,weatherlink.com 1.10,2013-09-17 08:18:00,
2013-09-17 04:33:00,51.3,48.0,30.26,West,275,1.0,2.0,89,0.00,,,0.00,weatherlink.com 1.10,2013-09-17 08:33:00,
2013-09-17 04:48:00,50.9,48.0,30.27,West,275,0.0,1.0,89,0.00,,,0.00,weatherlink.com 1.10,2013-09-17 08:48:00,
2013-09-17 05:03:00,50.4,48.0,30.27,West,275,0.0,1.0,90,0.00,,,0.00,weatherlink.com 1.10,2013-09-17 09:03:00,
2013-09-17 05:18:00,49.9,47.0,30.28,ESE,110,0.0,1.0,91,0.00,,,0.00,weatherlink.com 1.10,2013-09-17 09:18:00,
2013-09-17 05:33:00,49.5,47.0,30.29,WNW,288,1.0,5.0,90,0.00,,,0.00,weatherlink.com 1.10,2013-09-17 09:33:00,
2013-09-17 05:49:00,48.9,46.0,30.30,SSW,210,0.0,3.0,89,0.00,,,0.00,weatherlink.com 1.10,2013-09-17 09:49:00,
2013-09-17 06:03:00,48.3,44.0,30.30,WNW,286,0.0,2.0,86,0.00,,,0.00,weatherlink.com 1.10,2013-09-17 10:03:00,
2013-09-17 06:18:00,47.6,43.0,30.31,SSW,213,0.0,2.0,85,0.00,,,0.00,weatherlink.com 1.10,2013-09-17 10:18:00,
2013-09-17 06:34:00,47.0,43.0,30.32,WSW,257,1.0,2.0,85,0.00,,,0.00,weatherlink.com 1.10,2013-09-17 10:34:00,
2013-09-17 06:49:00,46.4,42.0,30.32,West,266,0.0,2.0,85,0.00,,,0.00,weatherlink.com 1.10,2013-09-17 10:49:00,
2013-09-17 07:04:00,45.9,42.0,30.33,West,273,0.0,3.0,85,0.00,,,0.00,weatherlink.com 1.10,2013-09-17 11:04:00,
2013-09-17 07:19:00,45.6,42.0,30.34,West,261,0.0,2.0,86,0.00,,,0.00,weatherlink.com 1.10,2013-09-17 11:19:00,
2013-09-17 07:34:00,46.0,42.0,30.35,NW,304,0.0,1.0,86,0.00,,,0.00,weatherlink.com 1.10,2013-09-17 11:34:00,
2013-09-17 07:49:00,48.4,44.0,30.35,West,273,0.0,5.0,83,0.00,,,0.00,weatherlink.com 1.10,2013-09-17 11:49:00,
2013-09-17 08:04:00,50.9,45.0,30.36,West,281,4.0,4.0,80,0.00,,,0.00,weatherlink.com 1.10,2013-09-17 12:04:00,
2013-09-17 08:19:00,52.9,45.0,30.35,NW,306,0.0,3.0,74,0.00,,,0.00,weatherlink.com 1.10,2013-09-17 12:19:00,
2013-09-17 08:34:00,53.7,44.0,30.36,SE,144,0.0,3.0,70,0.00,,,0.00,weatherlink.com 1.10,2013-09-17 12:34:00,
2013-09-17 08:49:00,54.4,44.0,30.36,NNW,337,0.0,4.0,68,0.00,,,0.00,weatherlink.com 1.10,2013-09-17 12:49:00,
2013-09-17 09:04:00,56.3,45.0,30.36,SW,215,0.0,3.0,65,0.00,,,0.00,weatherlink.com 1.10,2013-09-17 13:04:00,
2013-09-17 09:19:00,56.9,45.0,30.37,WNW,293,1.0,5.0,65,0.00,,,0.00,weatherlink.com 1.10,2013-09-17 13:19:00,
2013-09-17 09:34:00,56.2,44.0,30.37,SSE,147,0.0,5.0,64,0.00,,,0.00,weatherlink.com 1.10,2013-09-17 13:34:00,
2013-09-17 09:50:00,57.2,44.0,30.37,ESE,116,0.0,4.0,62,0.00,,,0.00,weatherlink.com 1.10,2013-09-17 13:50:00,
2013-09-17 10:05:00,57.1,43.0,30.37,NE,45,1.0,5.0,59,0.00,,,0.00,weatherlink.com 1.10,2013-09-17 14:05:00,
2013-09-17 10:20:00,58.0,45.0,30.37,West,281,1.0,3.0,62,0.00,,,0.00,weatherlink.com 1.10,2013-09-17 14:20:00,
2013-09-17 10:35:00,58.4,42.0,30.37,East,84,1.0,5.0,55,0.00,,,0.00,weatherlink.com 1.10,2013-09-17 14:35:00,
2013-09-17 10:49:00,57.8,42.0,30.37,SE,144,0.0,7.0,56,0.00,,,0.00,weatherlink.com 1.10,2013-09-17 14:49:00,
2013-09-17 11:04:00,60.0,44.0,30.38,West,281,0.0,7.0,57,0.00,,,0.00,weatherlink.com 1.10,2013-09-17 15:04:00,
2013-09-17 11:20:00,61.3,43.0,30.37,ESE,105,2.0,3.0,52,0.00,,,0.00,weatherlink.com 1.10,2013-09-17 15:20:00,
2013-09-17 11:35:00,60.5,44.0,30.37,East,82,3.0,5.0,54,0.00,,,0.00,weatherlink.com 1.10,2013-09-17 15:35:00,
2013-09-17 11:49:00,61.3,43.0,30.36,ESE,117,2.0,3.0,52,0.00,,,0.00,weatherlink.com 1.10,2013-09-17 15:49:00,
2013-09-17 12:05:00,61.6,46.0,30.36,WSW,255,0.0,2.0,57,0.00,,,0.00,weatherlink.com 1.10,2013-09-17 16:05:00,
2013-09-17 12:35:00,63.2,44.0,30.36,East,86,0.0,5.0,50,0.00,,,0.00,weatherlink.com 1.10,2013-09-17 16:35:00,
2013-09-17 12:49:00,63.1,45.0,30.35,NW,313,0.0,4.0,52,0.00,,,0.00,weatherlink.com 1.10,2013-09-17 16:49:00,
2013-09-17 13:05:00,63.0,42.0,30.34,ENE,67,0.0,5.0,47,0.00,,,0.00,weatherlink.com 1.10,2013-09-17 17:05:00,
2013-09-17 13:20:00,64.7,44.0,30.34,West,265,2.0,5.0,47,0.00,,,0.00,weatherlink.com 1.10,2013-09-17 17:20:00,
2013-09-17 13:35:00,65.0,45.0,30.33,SE,138,4.0,6.0,48,0.00,,,0.00,weatherlink.com 1.10,2013-09-17 17:35:00,
2013-09-17 13:50:00,64.8,46.0,30.32,SE,125,1.0,3.0,50,0.00,,,0.00,weatherlink.com 1.10,2013-09-17 17:50:00,
2013-09-17 14:05:00,65.8,44.0,30.32,SSW,200,2.0,3.0,46,0.00,,,0.00,weatherlink.com 1.10,2013-09-17 18:05:00,
2013-09-17 14:20:00,66.3,45.0,30.32,West,267,0.0,3.0,47,0.00,,,0.00,weatherlink.com 1.10,2013-09-17 18:20:00,
2013-09-17 14:35:00,67.2,44.0,30.31,ENE,75,4.0,7.0,44,0.00,,,0.00,weatherlink.com 1.10,2013-09-17 18:35:00,
2013-09-17 14:50:00,67.2,46.0,30.30,West,281,1.0,4.0,47,0.00,,,0.00,weatherlink.com 1.10,2013-09-17 18:50:00,
2013-09-17 15:05:00,68.4,44.0,30.30,WNW,282,1.0,4.0,42,0.00,,,0.00,weatherlink.com 1.10,2013-09-17 19:05:00,
2013-09-17 15:20:00,68.5,44.0,30.29,SE,138,0.0,5.0,41,0.00,,,0.00,weatherlink.com 1.10,2013-09-17 19:20:00,
2013-09-17 15:35:00,67.8,44.0,30.28,WNW,303,0.0,3.0,42,0.00,,,0.00,weatherlink.com 1.10,2013-09-17 19:35:00,
2013-09-17 15:50:00,68.2,44.0,30.27,NNE,12,0.0,4.0,42,0.00,,,0.00,weatherlink.com 1.10,2013-09-17 19:50:00,
2013-09-17 16:05:00,68.4,44.0,30.27,NNE,17,0.0,3.0,42,0.00,,,0.00,weatherlink.com 1.10,2013-09-17 20:05:00,
2013-09-17 16:20:00,67.4,43.0,30.26,East,97,0.0,3.0,41,0.00,,,0.00,weatherlink.com 1.10,2013-09-17 20:20:00,
2013-09-17 16:35:00,66.4,44.0,30.26,West,262,0.0,3.0,44,0.00,,,0.00,weatherlink.com 1.10,2013-09-17 20:35:00,
2013-09-17 16:50:00,66.0,43.0,30.25,SSW,201,0.0,2.0,44,0.00,,,0.00,weatherlink.com 1.10,2013-09-17 20:50:00,
2013-09-17 17:05:00,65.9,44.0,30.25,ENE,65,0.0,3.0,46,0.00,,,0.00,weatherlink.com 1.10,2013-09-17 21:05:00,
2013-09-17 17:20:00,65.8,45.0,30.25,NNW,333,1.0,3.0,47,0.00,,,0.00,weatherlink.com 1.10,2013-09-17 21:20:00,
2013-09-17 17:35:00,65.6,45.0,30.25,West,273,0.0,2.0,47,0.00,,,0.00,weatherlink.com 1.10,2013-09-17 21:35:00,
2013-09-17 17:50:00,65.4,44.0,30.24,East,82,1.0,3.0,47,0.00,,,0.00,weatherlink.com 1.10,2013-09-17 21:50:00,
2013-09-17 18:05:00,65.3,44.0,30.25,East,86,1.0,2.0,47,0.00,,,0.00,weatherlink.com 1.10,2013-09-17 22:05:00,
2013-09-17 18:20:00,64.9,44.0,30.25,ENE,63,0.0,2.0,47,0.00,,,0.00,weatherlink.com 1.10,2013-09-17 22:20:00,
2013-09-17 18:35:00,64.5,43.0,30.25,ESE,122,0.0,2.0,46,0.00,,,0.00,weatherlink.com 1.10,2013-09-17 22:35:00,
2013-09-17 18:50:00,63.7,43.0,30.25,SSE,158,0.0,2.0,48,0.00,,,0.00,weatherlink.com 1.10,2013-09-17 22:50:00,
2013-09-17 19:05:00,62.7,46.0,30.25,SSE,158,0.0,0.0,54,0.00,,,0.00,weatherlink.com 1.10,2013-09-17 23:05:00,
2013-09-17 19:20:00,61.2,47.0,30.25,SSE,158,0.0,0.0,59,0.00,,,0.00,weatherlink.com 1.10,2013-09-17 23:20:00,
2013-09-17 19:35:00,59.1,47.0,30.25,SSE,158,0.0,0.0,64,0.00,,,0.00,weatherlink.com 1.10,2013-09-17 23:35:00,
2013-09-17 19:50:00,57.2,47.0,30.25,SSE,158,0.0,0.0,69,0.00,,,0.00,weatherlink.com 1.10,2013-09-17 23:50:00,
2013-09-17 20:05:00,55.5,47.0,30.25,SSE,158,0.0,0.0,73,0.00,,,0.00,weatherlink.com 1.10,2013-09-18 00:05:00,
2013-09-17 20:20:00,54.0,47.0,30.26,SSE,158,0.0,0.0,76,0.00,,,0.00,weatherlink.com 1.10,2013-09-18 00:20:00,
2013-09-17 20:35:00,52.7,46.0,30.26,SSE,158,0.0,0.0,79,0.00,,,0.00,weatherlink.com 1.10,2013-09-18 00:35:00,
2013-09-17 20:50:00,51.6,46.0,30.26,SSE,158,0.0,0.0,80,0.00,,,0.00,weatherlink.com 1.10,2013-09-18 00:50:00,
2013-09-17 21:05:00,50.6,45.0,30.26,SSE,158,0.0,0.0,82,0.00,,,0.00,weatherlink.com 1.10,2013-09-18 01:05:00,
2013-09-17 21:20:00,49.9,45.0,30.27,SSE,158,0.0,0.0,83,0.00,,,0.00,weatherlink.com 1.10,2013-09-18 01:20:00,
2013-09-17 21:35:00,49.2,46.0,30.27,SSE,158,0.0,0.0,87,0.00,,,0.00,weatherlink.com 1.10,2013-09-18 01:35:00,
2013-09-17 21:50:00,48.6,45.0,30.27,SSE,158,0.0,0.0,86,0.00,,,0.00,weatherlink.com 1.10,2013-09-18 01:50:00,
2013-09-17 22:05:00,47.9,45.0,30.27,SSE,158,0.0,0.0,88,0.00,,,0.00,weatherlink.com 1.10,2013-09-18 02:05:00,
2013-09-17 22:20:00,47.6,45.0,30.27,SSE,158,0.0,0.0,89,0.00,,,0.00,weatherlink.com 1.10,2013-09-18 02:20:00,
2013-09-17 22:35:00,47.3,44.0,30.28,SSE,158,0.0,0.0,89,0.00,,,0.00,weatherlink.com 1.10,2013-09-18 02:35:00,
2013-09-17 22:50:00,46.8,44.0,30.28,SSE,158,0.0,0.0,89,0.00,,,0.00,weatherlink.com 1.10,2013-09-18 02:50:00,
2013-09-17 23:05:00,46.5,44.0,30.28,SSE,158,0.0,0.0,90,0.00,,,0.00,weatherlink.com 1.10,2013-09-18 03:05:00,
2013-09-17 23:21:00,46.1,44.0,30.27,SSE,158,0.0,0.0,91,0.00,,,0.00,weatherlink.com 1.10,2013-09-18 03:21:00,
2013-09-17 23:35:00,45.8,43.0,30.27,SSE,158,0.0,0.0,91,0.00,,,0.00,weatherlink.com 1.10,2013-09-18 03:35:00,
2013-09-17 23:50:00,45.4,43.0,30.27,SSE,158,0.0,0.0,91,0.00,,,0.00,weatherlink.com 1.10,2013-09-18 03:50:00,